Wind_Speed
25 27 29 30 31 33 34 36 40 44 47 47 48 49 50 51 51 51 51 51 50 50 50 50 49 48 47 46 45 43 43 42 42 44 43 42 41 40 39 39 39 39 38
25 25 25 26 28 30 32 33 35 38 42 44 45 45 45 48 50 50 50 50 51 51 51 50 50 50 49 49 47 45 44 43 43 43 43 44 44 42 42 42 42 41 41
23 23 23 24 25 27 28 30 32 34 37 40 43 44 44 46 48 49 49 49 51 52 51 50 50 50 50 50 48 47 45 44 44 43 44 45 46 45 45 45 45 45 44
21 21 22 23 23 24 26 27 29 31 35 38 39 42 44 46 46 47 48 48 49 50 50 49 50 50 50 49 49 49 47 45 45 45 45 46 48 48 47 47 47 48 48
20 21 21 22 23 24 25 26 27 29 32 35 36 38 40 42 44 44 45 47 47 48 48 49 49 49 49 49 50 50 49 49 49 49 48 48 48 49 49 48 47 48 48
18 19 20 21 22 22 23 24 26 27 28 31 34 36 37 39 41 42 42 44 45 47 46 47 48 47 48 49 49 49 50 50 50 49 49 49 49 50 51 51 49 49 49
17 17 18 19 19 20 21 22 23 24 26 28 32 34 35 37 39 39 41 41 43 45 45 45 46 45 47 47 47 49 49 50 49 49 49 50 51 51 52 53 51 51 51
17 16 16 16 17 17 18 20 21 22 24 25 27 29 31 32 34 36 39 40 41 42 43 44 44 44 45 46 47 47 48 49 49 49 50 51 52 52 53 54 53 52 51
15 15 15 16 17 17 17 18 19 19 20 22 23 24 26 28 30 32 34 35 38 40 42 42 43 43 45 45 46 47 47 48 49 50 50 51 52 53 54 54 54 54 53
14 15 15 14 15 15 15 15 16 17 16 17 19 21 23 25 28 30 31 32 34 37 39 40 40 42 44 46 47 47 48 49 49 49 49 50 51 53 53 54 55 56 55
13 12 12 12 11 12 12 12 13 14 15 16 17 19 21 24 26 28 29 31 31 34 37 39 40 41 44 44 45 46 49 50 51 51 50 51 52 52 54 55 55 56 56
12 11 10 10 10 9 9 9 10 11 12 12 14 17 19 22 23 25 27 29 31 32 35 38 39 40 42 43 44 46 48 50 51 52 53 53 54 54 54 55 55 56 55
11 11 10 10 9 9 9 9 9 11 12 12 14 15 17 19 20 21 24 27 30 31 33 36 37 39 40 41 43 45 46 48 50 52 53 53 54 54 54 54 54 54 54
11 10 10 11 10 10 10 10 10 11 11 13 14 15 16 17 19 20 22 24 27 30 32 33 34 35 37 40 41 43 43 45 48 50 52 53 53 54 54 53 53 53 53
11 11 11 11 11 10 11 11 11 11 12 13 14 15 15 16 17 18 19 21 23 25 28 30 32 34 36 38 40 41 42 43 45 47 49 51 52 53 54 54 54 53 53
11 11 11 12 11 11 11 12 12 12 12 13 14 14 15 16 16 17 18 20 22 24 27 28 30 32 34 37 39 41 42 43 44 45 47 49 50 50 52 53 53 52 52
12 13 13 13 13 12 12 13 13 13 13 13 14 14 14 14 14 16 17 19 21 23 26 28 29 31 33 35 36 38 40 41 43 43 45 46 47 48 49 51 52 52 53
14 14 14 14 14 14 15 15 15 16 15 15 15 15 15 16 15 15 16 18 20 22 25 27 28 30 32 34 36 37 40 41 42 43 43 43 44 46 48 49 50 51 52
15 15 15 15 16 16 16 16 16 17 17 17 17 17 18 18 18 18 20 20 21 22 24 26 28 29 31 33 35 37 38 38 40 40 41 42 42 43 45 46 48 49 50
16 16 16 17 17 17 17 17 18 18 19 19 19 20 19 19 19 20 21 22 24 25 26 27 28 29 30 31 33 35 37 38 38 38 39 39 41 41 42 44 44 46 47
18 18 18 19 19 20 20 20 20 20 21 21 21 21 21 21 21 22 23 24 25 26 27 28 29 30 31 32 33 35 36 36 36 36 36 37 38 38 40 41 42 43 44
21 22 22 23 23 24 24 24 24 23 23 23 23 23 23 24 24 24 25 26 27 28 29 29 30 31 32 33 35 35 35 34 34 34 35 35 36 37 37 38 39 40 41
25 25 26 26 26 26 27 27 27 27 27 26 26 26 26 26 27 27 28 28 29 30 31 31 32 32 33 34 35 34 34 34 35 34 35 35 36 36 36 37 38 40 41
28 28 29 29 29 29 30 30 29 29 29 28 28 28 29 29 30 30 31 31 32 32 32 32 32 33 34 34 34 35 35 35 35 35 36 36 36 37 38 38 39 40 41
31 31 31 31 31 31 31 31 31 31 30 30 30 30 30 31 32 33 33 34 35 34 34 34 34 34 35 35 36 36 36 37 38 38 38 38 38 38 38 38 39 39 40
32 32 32 32 32 32 32 31 31 31 32 32 33 32 32 33 34 35 35 36 36 36 36 36 36 36 37 37 37 37 37 38 38 39 39 39 39 38 39 39 39 39 40
Wind_Direction
271 269 265 261 257 254 251 250 248 244 242 241 240 240 239 238 239 241 242 243 243 244 244 245 246 246 247 249 251 252 254 256 256 256 257 257 258 258 258 260 261 262 263
273 273 269 264 260 256 252 251 248 245 243 241 239 240 240 239 239 240 242 242 241 243 244 244 246 247 249 249 250 252 254 256 257 257 256 257 258 259 260 260 260 261 263
273 271 270 266 262 257 252 250 250 247 244 241 239 239 239 238 239 240 242 242 242 244 244 243 244 245 248 249 249 250 253 255 256 257 259 259 259 259 258 259 260 260 262
277 275 273 269 265 261 258 254 251 248 246 243 241 240 238 238 238 241 242 242 243 243 243 244 244 246 247 249 250 251 252 253 256 258 259 260 259 258 258 259 260 261 262
279 277 276 274 267 264 262 257 253 250 247 244 243 241 239 239 239 241 242 241 241 242 244 243 244 247 248 250 251 252 252 253 256 258 260 261 261 260 260 260 260 261 263
285 282 279 277 271 265 262 259 255 250 247 245 243 243 242 242 242 242 243 242 241 242 245 245 245 247 248 250 251 251 252 253 256 257 259 260 262 261 261 262 262 262 262
290 287 280 277 275 268 265 262 260 253 249 247 244 243 244 244 244 245 245 243 241 242 244 245 246 247 250 252 252 253 253 254 256 258 260 261 263 264 263 262 263 263 263
291 292 285 280 279 274 268 265 260 254 253 250 246 244 244 245 246 248 247 245 243 243 244 245 246 248 250 252 253 254 255 254 256 259 261 263 264 265 264 263 263 264 264
293 293 290 285 283 280 272 266 260 259 256 252 247 244 245 245 247 247 248 244 242 243 244 245 246 248 251 253 254 256 256 257 258 260 262 264 265 265 265 264 264 265 264
296 298 294 289 283 280 275 268 263 260 257 254 249 246 247 249 251 249 247 245 245 244 245 247 250 251 252 254 256 258 259 259 258 260 262 264 265 265 266 265 265 265 265
298 299 298 298 292 287 279 275 267 263 261 260 256 252 253 254 255 253 251 250 249 248 249 249 250 252 254 256 258 259 259 258 259 261 262 264 265 266 266 265 265 264 265
305 305 305 306 303 301 293 285 271 267 265 267 265 260 258 257 255 256 258 257 255 254 254 254 253 255 257 259 261 262 262 261 261 262 263 265 266 267 267 266 265 264 265
314 312 310 306 304 306 303 291 279 278 277 274 274 272 268 263 262 265 264 260 259 257 257 256 256 257 260 262 264 265 267 266 265 264 264 265 267 267 267 266 265 265 264
319 316 313 312 309 308 304 302 294 289 288 284 282 281 276 273 272 272 270 266 262 259 261 258 259 262 264 266 267 268 269 271 270 269 267 266 267 268 267 266 266 266 265
321 322 321 322 318 315 312 311 306 299 293 290 288 286 284 282 280 277 277 272 268 267 267 265 265 266 267 268 269 271 272 273 274 273 270 267 267 267 266 265 266 266 265
317 319 320 321 322 320 319 318 314 305 302 296 295 293 290 288 283 281 281 277 272 270 271 269 269 270 271 272 272 274 275 275 276 274 272 270 269 268 266 264 264 264 264
311 314 314 315 317 317 318 319 319 317 310 306 305 302 300 297 289 286 284 282 278 274 272 272 274 274 274 275 276 277 277 277 277 276 275 274 271 268 266 265 264 264 264
310 311 313 314 314 314 312 312 311 311 311 309 306 301 301 297 292 292 292 291 287 284 282 281 281 281 279 280 281 282 281 280 279 279 279 277 274 271 269 267 265 264 263
305 305 308 312 311 311 310 308 309 310 310 309 309 306 303 298 293 291 291 293 291 290 289 289 288 288 287 286 286 287 287 284 282 282 281 279 276 273 271 269 268 266 263
303 302 303 305 307 307 308 308 308 308 309 309 309 308 305 303 300 297 297 296 294 292 292 291 292 292 293 292 291 291 290 288 286 284 282 281 278 276 273 271 269 266 265
301 300 300 301 301 301 301 302 302 303 304 305 305 306 305 303 300 300 301 300 299 297 295 293 293 293 294 294 295 296 295 292 290 288 286 284 282 279 277 274 272 270 268
297 297 297 298 297 297 297 298 299 299 300 301 302 302 303 303 301 301 300 300 300 299 297 294 293 293 294 295 295 295 295 295 292 290 289 287 286 284 281 278 273 271 270
296 297 297 297 296 295 295 295 296 297 299 299 299 299 301 302 301 301 300 300 300 300 299 297 295 295 296 297 297 296 295 294 293 291 290 289 289 286 283 281 278 274 271
294 294 294 294 294 294 294 294 294 295 297 298 298 299 300 301 301 300 300 300 300 301 301 299 298 296 296 296 297 297 295 293 293 293 293 291 290 288 285 283 280 276 273
293 294 293 293 294 293 293 294 295 295 296 296 297 297 297 299 300 299 300 300 300 300 300 299 299 298 297 297 297 295 294 293 292 292 291 291 291 289 287 284 282 278 275
294 294 293 292 293 293 294 295 295 295 296 296 296 295 296 296 297 298 298 299 299 299 299 299 300 299 299 298 298 296 295 294 294 293 292 291 289 288 286 283 281 279 277
Height
5684 5683 5682 5682 5683 5684 5686 5688 5691 5695 5698 5703 5708 5713 5719 5725 5731 5736 5741 5745 5750 5755 5759 5764 5768 5771 5775 5778 5782 5785 5787 5789 5791 5793 5795 5798 5799 5801 5802 5804 5805 5806 5807
5679 5678 5676 5676 5676 5677 5678 5680 5683 5686 5689 5694 5699 5704 5708 5714 5720 5725 5729 5734 5739 5744 5749 5753 5757 5761 5765 5768 5771 5775 5778 5780 5782 5784 5786 5788 5790 5792 5794 5795 5796 5797 5798
5674 5673 5672 5671 5671 5671 5672 5674 5676 5678 5681 5685 5689 5693 5698 5703 5709 5714 5718 5723 5728 5733 5738 5742 5747 5750 5754 5757 5761 5765 5767 5770 5772 5774 5776 5777 5780 5782 5784 5785 5786 5787 5788
5669 5668 5667 5666 5666 5666 5666 5667 5668 5671 5673 5676 5680 5684 5689 5694 5699 5703 5707 5712 5716 5722 5727 5731 5736 5740 5743 5747 5750 5754 5757 5759 5762 5763 5765 5767 5769 5770 5773 5775 5775 5776 5777
5665 5664 5662 5661 5661 5660 5660 5661 5662 5664 5666 5668 5671 5675 5679 5684 5688 5692 5696 5700 5705 5710 5715 5720 5725 5728 5732 5736 5739 5742 5745 5748 5751 5752 5754 5756 5757 5758 5760 5762 5764 5765 5766
5661 5660 5659 5657 5656 5656 5655 5656 5656 5656 5658 5660 5663 5666 5670 5674 5678 5681 5685 5690 5694 5700 5704 5709 5713 5717 5721 5724 5728 5731 5734 5736 5738 5740 5742 5744 5745 5747 5748 5749 5751 5752 5754
5658 5656 5655 5653 5652 5651 5650 5650 5650 5650 5651 5653 5655 5658 5661 5665 5668 5671 5675 5679 5684 5689 5694 5698 5702 5706 5710 5713 5716 5719 5721 5723 5726 5729 5730 5732 5733 5734 5735 5736 5737 5739 5741
5655 5653 5651 5650 5648 5647 5645 5645 5644 5645 5645 5646 5648 5650 5653 5656 5659 5662 5665 5669 5673 5678 5682 5686 5691 5695 5698 5701 5704 5706 5709 5711 5714 5716 5718 5719 5720 5721 5722 5722 5724 5725 5728
5652 5650 5648 5646 5645 5643 5641 5641 5640 5640 5640 5640 5642 5644 5646 5648 5651 5653 5656 5659 5664 5668 5672 5676 5680 5684 5687 5689 5691 5694 5697 5699 5701 5703 5704 5706 5707 5707 5708 5708 5709 5710 5712
5649 5647 5645 5643 5641 5640 5638 5637 5636 5636 5635 5635 5636 5638 5640 5642 5643 5646 5648 5651 5654 5658 5662 5666 5669 5672 5675 5678 5680 5682 5684 5686 5688 5690 5691 5692 5693 5693 5693 5694 5694 5694 5695
5647 5644 5642 5640 5639 5637 5636 5634 5633 5632 5632 5632 5632 5633 5635 5636 5637 5639 5640 5643 5646 5649 5652 5655 5659 5662 5664 5666 5668 5670 5671 5673 5675 5676 5677 5679 5679 5679 5679 5679 5679 5679 5680
5644 5642 5640 5638 5636 5635 5633 5631 5630 5630 5629 5629 5629 5629 5630 5631 5632 5632 5633 5635 5637 5640 5642 5645 5648 5651 5653 5655 5656 5657 5658 5660 5661 5662 5663 5664 5664 5664 5664 5664 5664 5665 5665
5642 5640 5639 5637 5635 5633 5631 5630 5628 5627 5627 5626 5626 5626 5626 5626 5626 5626 5626 5627 5629 5631 5632 5635 5637 5640 5642 5643 5644 5645 5646 5646 5647 5647 5648 5648 5648 5648 5648 5648 5649 5649 5650
5641 5639 5637 5635 5633 5632 5630 5628 5626 5625 5624 5623 5623 5622 5621 5621 5621 5620 5620 5621 5622 5623 5624 5626 5628 5630 5631 5632 5633 5633 5633 5633 5633 5632 5632 5633 5632 5633 5633 5633 5634 5634 5634
5639 5637 5635 5633 5632 5630 5628 5626 5624 5623 5621 5620 5619 5618 5616 5615 5615 5615 5615 5615 5615 5616 5616 5618 5619 5620 5621 5622 5622 5622 5621 5621 5620 5619 5618 5618 5617 5617 5617 5618 5618 5618 5619
5637 5635 5633 5631 5629 5627 5626 5624 5622 5620 5618 5617 5615 5614 5612 5611 5610 5610 5609 5609 5609 5609 5609 5610 5611 5611 5611 5611 5611 5610 5609 5608 5606 5605 5604 5603 5602 5601 5602 5602 5602 5603 5603
5635 5633 5631 5629 5627 5625 5623 5621 5619 5617 5616 5614 5612 5609 5608 5606 5606 5605 5604 5603 5603 5603 5602 5602 5602 5602 5602 5601 5599 5598 5596 5595 5593 5591 5590 5588 5587 5586 5586 5586 5587 5587 5588
5632 5630 5628 5626 5624 5622 5620 5618 5616 5614 5612 5610 5608 5606 5604 5602 5601 5600 5599 5598 5597 5596 5595 5594 5594 5593 5592 5590 5588 5586 5584 5582 5579 5578 5576 5574 5573 5572 5571 5571 5571 5572 5573
5629 5627 5625 5623 5621 5619 5617 5615 5613 5610 5608 5606 5604 5601 5599 5597 5596 5594 5593 5591 5590 5589 5587 5586 5585 5583 5582 5580 5577 5575 5572 5569 5566 5564 5562 5560 5558 5557 5556 5556 5556 5557 5558
5625 5623 5621 5619 5616 5614 5612 5610 5608 5605 5603 5601 5599 5596 5594 5592 5590 5588 5586 5585 5583 5581 5579 5578 5576 5574 5572 5570 5567 5564 5561 5558 5555 5552 5549 5547 5545 5543 5541 5541 5541 5541 5543
5620 5618 5616 5614 5612 5609 5607 5605 5603 5600 5598 5595 5593 5591 5588 5586 5584 5582 5580 5578 5576 5574 5572 5570 5567 5565 5562 5559 5556 5553 5549 5546 5543 5540 5538 5535 5532 5530 5528 5527 5527 5527 5528
5614 5612 5610 5608 5605 5603 5601 5599 5596 5594 5592 5589 5587 5585 5582 5580 5578 5575 5573 5571 5568 5566 5563 5560 5558 5555 5552 5549 5546 5542 5538 5535 5532 5530 5527 5524 5522 5519 5516 5515 5514 5514 5514
5607 5605 5603 5600 5598 5595 5593 5591 5589 5586 5584 5582 5579 5577 5575 5573 5570 5568 5565 5563 5560 5557 5554 5551 5548 5545 5542 5538 5535 5531 5528 5524 5521 5518 5516 5513 5510 5507 5505 5503 5502 5501 5501
5599 5597 5594 5591 5589 5587 5584 5582 5580 5578 5576 5574 5571 5569 5567 5564 5562 5559 5557 5554 5550 5547 5544 5540 5537 5534 5531 5528 5524 5520 5517 5513 5510 5507 5504 5501 5498 5496 5493 5491 5489 5488 5488
5590 5587 5584 5582 5579 5577 5575 5573 5570 5568 5566 5564 5562 5560 5558 5555 5553 5550 5547 5544 5541 5537 5534 5531 5527 5524 5521 5517 5513 5509 5505 5502 5499 5495 5492 5489 5486 5484 5482 5479 5478 5476 5476
5580 5577 5574 5572 5570 5568 5565 5563 5561 5559 5557 5555 5552 5550 5547 5545 5543 5540 5537 5533 5530 5527 5523 5520 5516 5513 5509 5505 5501 5497 5493 5489 5486 5482 5479 5477 5474 5472 5469 5467 5466 5464 5463